GW6837 Weather Reports


time (UTC)temp
C
wind
direction
speed
KPH
gust
KPH
rain 1hr
cm
rain 24hr
cm
rain mn
cm
humidity
%
barometer
mb
20260507000732 14 229 16.1 19.3 0.00 0.51 0.51 96 1006.4
20260507000228 14 204 16.1 19.3 0.00 0.51 0.51 96 1006.2
20260506235725 14 236 4.8 19.3 0.00 0.51 0.51 97 1006.1
20260506235220 14 202 9.7 16.1 0.00 0.51 0.51 97 1006.4
20260506234718 14 213 11.3 17.7 0.00 0.51 0.51 97 1006.0
20260506234215 14 241 9.7 17.7 0.00 0.51 0.51 97 1006.2
20260506233712 14 216 17.7 24.1 0.00 0.51 0.51 96 1006.1
20260506233209 14 195 11.3 17.7 0.13 0.51 0.51 96 1006.2
20260506232706 14 231 9.7 16.1 0.13 0.51 0.51 96 1006.2
20260506232200 14 240 11.3 24.1 0.05 0.48 0.48 96 1006.0
20260506231658 14 210 30.6 30.6 0.05 0.48 0.48 96 1006.2
20260506231156 14 225 16.1 27.4 0.05 0.48 0.48 95 1005.8
20260506230652 15 203 14.5 25.7 0.00 0.46 0.46 95 1006.0
20260506230149 15 213 17.7 30.6 0.00 0.46 0.46 95 1005.8
20260506225646 15 195 17.7 27.4 0.00 0.46 0.46 95 1005.7
20260506225143 15 192 19.3 22.5 0.00 0.46 0.46 95 1005.8
20260506224639 15 204 12.9 25.7 0.00 0.46 0.46 94 1005.9
20260506224136 15 199 22.5 29.0 0.00 0.46 0.46 94 1006.0
20260506223632 15 188 12.9 24.1 0.00 0.46 0.46 94 1006.0
20260506223128 15 197 16.1 24.1 0.00 0.46 0.46 94 1005.9
20260506222626 15 196 9.7 19.3 0.00 0.46 0.46 94 1006.1
20260506222122 15 221 14.5 27.4 0.00 0.46 0.46 94 1006.1
20260506221619 15 206 16.1 29.0 0.00 0.46 0.46 94 1006.1
20260506221117 15 197 14.5 30.6 0.00 0.46 0.46 94 1006.2
20260506220614 15 218 9.7 25.7 0.00 0.46 0.46 94 1006.1
20260506220109 15 183 20.9 25.7 0.00 0.46 0.46 94 1006.4
20260506215606 15 195 17.7 22.5 0.00 0.46 0.46 94 1006.2
20260506215101 15 184 22.5 29.0 0.00 0.46 0.46 94 1006.4
20260506214559 15 193 12.9 24.1 0.00 0.46 0.46 94 1006.4
20260506214056 15 207 17.7 27.4 0.00 0.46 0.46 94 1006.4
20260506213554 15 199 24.1 27.4 0.00 0.46 0.46 94 1006.4
20260506213051 15 203 19.3 27.4 0.00 0.46 0.46 94 1006.5
20260506212547 15 207 24.1 32.2 0.00 0.46 0.46 93 1006.4
20260506212042 15 192 27.4 29.0 0.00 0.46 0.46 94 1006.5
20260506211538 15 204 32.2 40.2 0.00 0.46 0.46 94 1006.5
20260506211036 15 179 20.9 24.1 0.05 0.46 0.46 95 1006.5
20260506210532 15 199 20.9 24.1 0.05 0.46 0.46 95 1006.6
20260506210029 15 223 12.9 22.5 0.00 0.46 0.46 95 1006.7
20260506205525 15 177 9.7 12.9 0.00 0.46 0.46 95 1006.5
20260506205021 15 184 14.5 17.7 0.00 0.46 0.46 95 1006.8
20260506204519 15 154 17.7 25.7 0.00 0.46 0.46 95 1006.6
20260506204016 15 174 8.0 14.5 0.00 0.46 0.46 95 1006.8
20260506203514 15 145 9.7 14.5 0.05 0.46 0.46 95 1006.9
20260506203010 15 152 9.7 14.5 0.05 0.46 0.46 95 1006.8
20260506202508 15 137 6.4 14.5 0.00 0.46 0.46 95 1007.0
20260506202004 15 178 8.0 14.5 0.00 0.46 0.46 95 1007.0
20260506201502 15 191 16.1 17.7 0.00 0.46 0.46 95 1007.2
20260506200958 15 168 3.2 8.0 0.00 0.46 0.46 95 1007.3
20260506200454 15 193 14.5 20.9 0.00 0.46 0.46 95 1007.4
20260506195951 15 204 9.7 19.3 0.00 0.46 0.46 95 1007.3
20260506195448 15 194 11.3 14.5 0.00 0.46 0.46 95 1007.2
20260506194944 15 209 12.9 19.3 0.05 0.46 0.46 95 1007.6
20260506194442 15 222 11.3 17.7 0.30 0.46 0.46 95 1007.4
20260506193938 15 220 14.5 24.1 0.36 0.43 0.43 95 1007.7
20260506193436 15 218 14.5 17.7 0.23 0.41 0.41 95 1007.5
20260506192932 15 203 9.7 17.7 0.13 0.38 0.38 94 1007.7
20260506192429 15 201 16.1 22.5 0.13 0.36 0.36 94 1007.6
20260506191926 15 215 20.9 20.9 0.13 0.36 0.36 94 1007.7
20260506191422 15 185 3.2 17.7 0.13 0.33 0.33 94 1007.7
20260506190919 15 192 16.1 20.9 0.13 0.33 0.33 94 1007.8
20260506190416 15 196 11.3 20.9 0.13 0.33 0.33 94 1007.9
20260506185913 15 185 17.7 25.7 0.13 0.30 0.30 93 1008.0
20260506185410 15 169 17.7 24.1 0.13 0.30 0.30 93 1007.8
20260506184907 15 200 8.0 25.7 0.00 0.28 0.28 93 1007.9
20260506184404 15 205 24.1 30.6 0.05 0.28 0.28 93 1007.9
20260506183901 15 197 20.9 30.6 0.05 0.28 0.28 93 1007.9
20260506183356 15 184 17.7 20.9 0.05 0.28 0.28 93 1008.1
20260506182854 15 203 17.7 22.5 0.05 0.28 0.28 93 1008.2
20260506182351 15 208 12.9 17.7 0.13 0.25 0.25 93 1008.2
20260506181848 15 180 12.9 24.1 0.18 0.25 0.25 93 1008.2
20260506181346 15 203 22.5 25.7 0.13 0.23 0.23 92 1008.5
20260506180843 15 215 19.3 24.1 0.18 0.23 0.23 92 1008.7
20260506180339 15 207 24.1 25.7 0.18 0.23 0.23 91 1008.8
20260506175835 15 181 17.7 24.1 0.18 0.20 0.20 91 1008.5
20260506175332 15 210 9.7 22.5 0.23 0.18 0.18 90 1008.6
20260506174829 15 223 12.9 24.1 0.18 0.18 0.18 89 1008.7
20260506174327 15 225 16.1 22.5 0.18 0.15 0.15 89 1008.8
20260506173824 15 221 11.3 19.3 0.18 0.15 0.15 88 1008.8
20260506173321 16 213 9.7 19.3 0.13 0.13 0.13 88 1008.8
20260506172818 16 246 8.0 17.7 0.13 0.10 0.10 88 1008.7
20260506172315 16 234 9.7 16.1 0.18 0.10 0.10 87 1008.9
20260506171812 16 203 14.5 14.5 0.18 0.10 0.10 84 1008.7
20260506171309 16 192 9.7 17.7 0.13 0.08 0.08 83 1008.7
20260506170807 16 179 9.7 9.7 0.13 0.05 0.05 83 1008.6
20260506170303 16 187 6.4 9.7 0.18 0.05 0.05 83 1008.8
20260506165802 16 191 11.3 11.3 0.18 0.05 0.05 82 1008.5
20260506165259 16 198 6.4 6.4 0.13 0.03 0.03 80 1008.7
20260506164755 16 194 4.8 9.7 0.05 0.00 0.00 79 1008.7
20260506164252 16 152 11.3 14.5 0.00 0.00 0.00 78 1008.5
20260506163749 17 152 9.7 9.7 0.00 0.00 0.00 77 1008.7
20260506163244 17 144 9.7 11.3 0.00 0.00 0.00 77 1009.1
20260506162740 17 139 9.7 12.9 0.00 0.00 0.00 77 1008.9
20260506162238 16 155 3.2 8.0 0.00 0.00 0.00 77 1008.9
20260506161735 16 177 6.4 12.9 0.00 0.00 0.00 77 1009.2
20260506161232 17 149 11.3 16.1 0.00 0.00 0.00 76 1009.2
20260506160730 17 144 8.0 9.7 0.00 0.00 0.00 76 1009.2
20260506160226 16 181 6.4 11.3 0.00 0.00 0.00 77 1009.4
20260506155725 16 160 8.0 11.3 0.00 0.00 0.00 77 1009.6
20260506155222 16 224 9.7 9.7 0.00 0.00 0.00 77 1010.1
20260506153329 17 219 11.3 12.9 0.00 0.00 0.00 74 1010.0
20260506152826 16 176 6.4 11.3 0.00 0.00 0.00 75 1010.0
20260506152323 16 176 17.7 19.3 0.00 0.00 0.00 75 1010.4
20260506151822 16 192 12.9 16.1 0.00 0.00 0.00 76 1010.4
20260506151318 16 183 12.9 17.7 0.00 0.00 0.00 76 1010.3
20260506150815 16 222 6.4 12.9 0.00 0.00 0.00 76 1010.1
20260506150312 16 168 9.7 16.1 0.00 0.00 0.00 77 1010.3
20260506145809 16 164 9.7 17.7 0.00 0.00 0.00 77 1010.0
20260506145306 16 147 9.7 12.9 0.00 0.00 0.00 77 1010.1
20260506144803 16 151 12.9 12.9 0.00 0.00 0.00 77 1009.9
20260506144259 16 163 9.7 12.9 0.00 0.00 0.00 77 1010.3
20260506143757 16 180 4.8 6.4 0.00 0.00 0.00 77 1010.3
20260506143254 16 159 8.0 9.7 0.00 0.00 0.00 77 1010.1
20260506142753 15 183 8.0 9.7 0.00 0.00 0.00 77 1010.0
20260506142250 15 176 9.7 9.7 0.00 0.00 0.00 78 1010.1
20260506141748 15 208 4.8 9.7 0.00 0.00 0.00 78 1010.1
20260506141246 15 221 4.8 11.3 0.00 0.00 0.00 78 1010.1
20260506140743 15 180 8.0 12.9 0.00 0.00 0.00 78 1010.4
20260506140240 15 194 8.0 9.7 0.00 0.00 0.00 78 1010.0
20260506135737 15 160 6.4 8.0 0.00 0.00 0.00 78 1010.1
20260506135233 15 173 6.4 8.0 0.00 0.00 0.00 79 1009.9
20260506134730 15 189 11.3 11.3 0.00 0.00 0.00 78 1010.4
20260506134227 15 183 4.8 9.7 0.00 0.00 0.00 79 1010.3
20260506133724 15 160 8.0 11.3 0.00 0.00 0.00 79 1010.5
20260506133221 15 161 3.2 12.9 0.00 0.00 0.00 79 1010.7
20260506132718 15 187 6.4 8.0 0.00 0.00 0.00 79 1010.8
20260506132215 15 148 4.8 11.3 0.00 0.00 0.00 79 1010.8
20260506131713 15 221 6.4 9.7 0.00 0.00 0.00 80 1010.6
20260506131208 15 203 8.0 9.7 0.00 0.00 0.00 80 1010.7
20260506130705 14 168 4.8 11.3 0.00 0.00 0.00 80 1010.6
20260506130202 14 155 11.3 14.5 0.00 0.00 0.00 80 1010.4
20260506125700 14 157 11.3 16.1 0.00 0.00 0.00 80 1010.4
20260506125158 14 165 14.5 19.3 0.00 0.00 0.00 80 1010.5
20260506124656 14 160 12.9 17.7 0.00 0.00 0.00 79 1010.6
20260506124154 14 168 8.0 12.9 0.00 0.00 0.00 79 1010.6
20260506123651 14 196 9.7 14.5 0.00 0.00 0.00 79 1010.6
20260506123149 14 165 8.0 11.3 0.00 0.00 0.00 80 1010.4
20260506122646 14 185 6.4 14.5 0.00 0.00 0.00 79 1010.6
20260506122143 14 178 14.5 16.1 0.00 0.00 0.00 79 1010.6
20260506121641 14 199 6.4 14.5 0.00 0.00 0.00 80 1010.8
20260506121137 13 202 8.0 14.5 0.00 0.00 0.00 80 1010.7
20260506120635 13 173 11.3 16.1 0.00 0.00 0.00 79 1010.8
20260506120132 13 175 14.5 22.5 0.00 0.00 0.00 79 1010.6
20260506115631 13 142 8.0 17.7 0.00 0.00 0.00 79 1010.8
20260506115128 13 178 9.7 20.9 0.00 0.00 0.00 79 1010.7
20260506114625 13 196 14.5 16.1 0.00 0.00 0.00 79 1010.9
20260506114123 13 189 11.3 14.5 0.00 0.00 0.00 79 1010.7
20260506113621 13 179 14.5 19.3 0.00 0.00 0.00 78 1010.8
20260506113119 13 174 11.3 14.5 0.00 0.00 0.00 79 1011.0
20260506112615 13 183 8.0 14.5 0.00 0.00 0.00 79 1010.6
20260506112112 13 191 6.4 14.5 0.00 0.00 0.00 79 1010.7
20260506111610 13 183 9.7 19.3 0.00 0.00 0.00 79 1010.8
20260506111108 13 173 11.3 14.5 0.00 0.00 0.00 79 1010.8
20260506110605 13 150 9.7 11.3 0.00 0.00 0.00 79 1010.8
20260506105558 13 172 14.5 16.1 0.00 0.00 0.00 78 1010.9
20260506105055 13 144 9.7 20.9 0.00 0.00 0.00 77 1010.9
20260506104554 13 165 14.5 19.3 0.00 0.00 0.00 77 1011.2
20260506104051 13 192 12.9 16.1 0.00 0.00 0.00 78 1011.1
20260506103548 13 168 16.1 16.1 0.00 0.00 0.00 77 1010.8
20260506103044 13 166 9.7 11.3 0.00 0.00 0.00 77 1011.1
20260506102543 14 184 8.0 12.9 0.00 0.00 0.00 76 1011.2
20260506102040 14 194 9.7 9.7 0.00 0.00 0.00 76 1011.0
20260506101536 14 194 9.7 11.3 0.00 0.00 0.00 76 1010.8
20260506101033 14 194 8.0 9.7 0.00 0.00 0.00 76 1010.9
20260506100532 14 197 6.4 9.7 0.00 0.00 0.00 76 1010.8
20260506100030 14 184 6.4 11.3 0.00 0.00 0.00 75 1010.9
20260506095528 14 187 11.3 14.5 0.00 0.00 0.00 75 1010.6
20260506095024 14 179 12.9 17.7 0.00 0.00 0.00 75 1010.7
20260506094522 14 176 12.9 16.1 0.00 0.00 0.00 75 1010.6
20260506094020 14 175 14.5 19.3 0.00 0.00 0.00 75 1010.5
20260506093518 14 172 14.5 14.5 0.00 0.00 0.00 75 1010.6
20260506093015 14 170 11.3 12.9 0.00 0.00 0.00 75 1010.5
20260506092513 14 171 12.9 14.5 0.00 0.00 0.00 74 1010.6
20260506092009 15 157 11.3 11.3 0.00 0.00 0.00 74 1010.6
20260506091508 15 172 11.3 12.9 0.00 0.00 0.00 72 1010.5
20260506091004 15 170 9.7 9.7 0.00 0.00 0.00 72 1010.6
20260506090503 15 192 8.0 11.3 0.00 0.00 0.00 71 1010.6
20260506085958 15 192 8.0 9.7 0.00 0.00 0.00 71 1010.6
20260506085455 15 172 8.0 11.3 0.00 0.00 0.00 71 1011.0
20260506084952 15 165 9.7 9.7 0.00 0.00 0.00 72 1010.7
20260506084449 15 191 8.0 8.0 0.00 0.00 0.00 74 1010.9
20260506083945 15 192 6.4 8.0 0.00 0.00 0.00 75 1010.9
20260506083442 15 212 8.0 9.7 0.00 0.00 0.00 74 1010.9
20260506082939 15 220 9.7 12.9 0.00 0.00 0.00 72 1010.6
20260506082436 15 245 9.7 9.7 0.00 0.00 0.00 72 1010.8
20260506081932 15 262 11.3 11.3 0.00 0.00 0.00 74 1010.8
20260506081431 15 285 8.0 9.7 0.00 0.00 0.00 75 1010.8
20260506080927 15 258 6.4 6.4 0.00 0.00 0.00 74 1010.8
20260506080424 15 268 6.4 6.4 0.00 0.00 0.00 73 1011.0
20260506073408 15 212 4.8 6.4 0.00 0.00 0.00 72 1010.8
20260506072905 15 208 4.8 8.0 0.00 0.00 0.00 72 1010.7
20260506072403 15 174 4.8 9.7 0.00 0.00 0.00 72 1010.7
20260506071900 16 167 3.2 8.0 0.00 0.00 0.00 72 1010.6
20260506071358 16 148 6.4 8.0 0.00 0.00 0.00 71 1010.6
20260506070854 16 186 6.4 16.1 0.00 0.00 0.00 72 1010.7
20260506070351 16 179 9.7 11.3 0.00 0.00 0.00 72 1010.4
20260506062329 16 209 6.4 9.7 0.00 0.00 0.00 74 1010.4
20260506061825 16 219 0.0 6.4 0.00 0.00 0.00 74 1010.7
20260506061322 16 196 3.2 8.0 0.00 0.00 0.00 74 1010.4
20260506060820 16 157 4.8 6.4 0.00 0.00 0.00 74 1010.5
20260506060318 16 128 9.7 12.9 0.00 0.00 0.00 74 1010.4
20260506051249 16 176 12.9 17.7 0.00 0.00 0.00 76 1010.3
20260506050747 16 162 9.7 14.5 0.00 0.00 0.00 76 1010.6
20260506050244 16 164 14.5 19.3 0.00 0.00 0.00 77 1010.5
20260506044735 16 185 12.9 17.7 0.00 0.00 0.00 77 1010.7
20260506044232 16 189 14.5 19.3 0.00 0.00 0.00 77 1010.7
20260506043730 16 168 12.9 19.3 0.00 0.00 0.00 78 1010.5
20260506043227 16 155 12.9 14.5 0.00 0.00 0.00 80 1010.6
20260506042725 15 156 12.9 16.1 0.00 0.00 0.00 81 1010.5
20260506042224 16 165 9.7 9.7 0.00 0.00 0.00 80 1010.4
20260506041722 16 151 4.8 4.8 0.00 0.00 0.00 79 1010.5
20260506041219 16 117 6.4 9.7 0.00 0.00 0.00 79 1010.3
20260506040716 16 101 6.4 11.3 0.00 0.00 0.00 79 1010.4
20260506040213 16 148 11.3 12.9 0.00 0.00 0.00 78 1010.4
20260506035709 16 154 11.3 16.1 0.00 0.05 0.05 79 1010.4
20260506035207 16 159 12.9 19.3 0.00 0.05 0.05 79 1010.5
20260506034703 16 165 14.5 16.1 0.00 0.05 0.05 80 1010.3
20260506034201 16 157 11.3 16.1 0.00 0.05 0.05 80 1010.5
20260506033658 16 117 8.0 14.5 0.00 0.05 0.05 80 1010.4
20260506033155 16 77 6.4 9.7 0.00 0.05 0.05 80 1010.6
20260506032652 16 100 6.4 6.4 0.00 0.05 0.05 79 1010.6
20260506032149 16 162 4.8 8.0 0.00 0.05 0.05 79 1010.6
20260506031645 16 155 9.7 12.9 0.00 0.05 0.05 78 1010.3
20260506031142 16 190 8.0 9.7 0.00 0.05 0.05 78 1010.4
20260506030641 16 170 12.9 14.5 0.00 0.05 0.05 77 1010.1
20260506030138 16 160 17.7 20.9 0.00 0.05 0.05 77 1010.1
20260506025635 16 169 14.5 22.5 0.00 0.05 0.05 78 1010.3
20260506025130 16 145 9.7 16.1 0.00 0.05 0.05 78 1010.5
20260506024628 16 156 9.7 9.7 0.00 0.05 0.05 77 1010.1
20260506024124 16 166 12.9 14.5 0.00 0.05 0.05 77 1010.1
20260506023621 16 186 14.5 17.7 0.00 0.05 0.05 76 1010.4
20260506023118 16 187 12.9 17.7 0.00 0.05 0.05 76 1010.4
20260506022615 16 193 9.7 12.9 0.00 0.05 0.05 76 1010.1
20260506022113 17 184 9.7 12.9 0.00 0.05 0.05 74 1010.1
20260506021610 16 186 9.7 11.3 0.00 0.05 0.05 74 1010.1
20260506021107 16 182 8.0 8.0 0.00 0.05 0.05 74 1010.4
20260506020604 17 173 6.4 14.5 0.00 0.05 0.05 74 1010.5
20260506015559 16 128 11.3 14.5 0.00 0.05 0.05 75 1010.6
20260506015056 16 110 4.8 14.5 0.00 0.05 0.05 76 1010.4
20260506014554 16 134 8.0 11.3 0.00 0.05 0.05 76 1010.4
20260506014049 16 129 4.8 12.9 0.00 0.05 0.05 75 1010.3
20260506013548 16 169 6.4 14.5 0.00 0.05 0.05 75 1010.4
20260506013044 16 131 9.7 14.5 0.00 0.05 0.05 74 1010.6
20260506012540 17 117 9.7 9.7 0.00 0.05 0.05 73 1010.4
20260506012037 17 184 6.4 9.7 0.00 0.05 0.05 72 1010.3
20260506011535 17 179 6.4 8.0 0.00 0.05 0.05 72 1010.5
20260506011031 17 181 6.4 12.9 0.00 0.05 0.05 72 1010.4
20260506010530 17 187 4.8 14.5 0.00 0.05 0.05 72 1010.4
20260506010026 17 165 16.1 17.7 0.00 0.05 0.05 71 1010.5
20260506005523 17 174 9.7 12.9 0.00 0.05 0.05 69 1010.5
20260506005019 18 219 11.3 14.5 0.00 0.05 0.05 65 1010.1
20260506004517 18 252 9.7 17.7 0.00 0.05 0.05 64 1010.1
20260506004014 17 256 12.9 12.9 0.00 0.05 0.05 65 1010.0
20260506003510 17 259 14.5 17.7 0.00 0.05 0.05 67 1009.9
20260506003006 17 259 11.3 17.7 0.00 0.05 0.05 70 1009.8
20260506002502 17 248 14.5 17.7 0.00 0.05 0.05 67 1009.6
20260506001957 17 249 16.1 17.7 0.00 0.05 0.05 67 1009.8
20260506001454 17 241 16.1 17.7 0.00 0.05 0.05 68 1009.7
20260506000952 17 244 11.3 20.9 0.00 0.05 0.05 68 1009.6